Regional Weather Roundup
Issued by NWS Green Bay, WI

Home | Current Version | Previous Version | Text Only | Print | Product List | Glossary On
Versions: 1 2 3 4 5 6 7 8 9 10 11 12 13 14 15 16 17 18 19 20 21 22 23 24 25 26 27 28 29 30 31 32 33 34 35 36 37 38 39 40 41 42 43 44 45 46 47 48 49 50
025
ASUS43 KGRB 282100
RWRGRB

NORTH-CENTRAL AND NORTHEAST WISCONSIN REGIONAL WEATHER ROUNDUP
NATIONAL WEATHER SERVICE GREEN BAY WI
400 PM CDT THU APR 28 2016

WIZ005-009-010>012-018-019-282200-
NORTH CENTRAL WISCONSIN

CITY           SKY/WX    TMP DP  RH WIND       PRES   REMARKS
IRONWOOD       MOSUNNY   46  30  53 N9        30.03S
MANITOWISH WTR NOT AVBL
ARBOR VITAE    NOT AVBL
EAGLE RIVER    NOT AVBL
LAND O LAKES   NOT AVBL
RHINELANDER    PTSUNNY   53  20  27 E9        30.01S
PHILLIPS       NOT AVBL
ANTIGO         NOT AVBL
TOMAHAWK       NOT AVBL
MERRILL        NOT AVBL
$$

WIZ013-073-282200-
NORTHEAST WISCONSIN

CITY           SKY/WX    TMP DP  RH WIND       PRES   REMARKS
IRON MOUNTAIN  SUNNY     54  20  26 E5        30.02F
MARINETTE      CLOUDY    43  30  61 NE13      30.06S
$$

WIZ017-030-035>037-045-282200-
CENTRAL WISCONSIN

CITY           SKY/WX    TMP DP  RH WIND       PRES   REMARKS
MEDFORD        NOT AVBL
WAUSAU         LGT RAIN  42  34  73 SE7       30.02R
MOSINEE        LGT RAIN  39  37  93 SE8       30.04S
MARSHFIELD     LGT RAIN  40  35  83 E14       30.00S
WISC RAPIDS    LGT RAIN  39  36  89 E12       30.02F
STEVENS POINT  NOT AVBL
WAUPACA        NOT AVBL
SHAWANO        NOT AVBL
CLINTONVILLE   NOT AVBL
WAUTOMA        NOT AVBL
$$

WIZ038-039-048-051-282200-
FOX VALLEY

CITY           SKY/WX    TMP DP  RH WIND       PRES   REMARKS
NWS GREEN BAY  CLOUDY    47  28  47 E12       30.03S
APPLETON       CLOUDY   N/A N/A N/A E7        30.00S
OSHKOSH        CLOUDY    44  33  65 NE9       29.99F
FOND DU LAC    CLOUDY    43  33  68 E16G23    29.99F
$$

WIZ022-050-052-282200-
EAST CENTRAL WISCONSIN

CITY           SKY/WX    TMP DP  RH WIND       PRES   REMARKS
EPHRAIM        NOT AVBL
STURGEON BAY   CLOUDY    43  27  52 NE10      30.07F
MANITOWOC      NOT AVBL
SHEBOYGAN      CLOUDY    42  32  67 NE13      30.00F
$$

LMZ563-521-522-541>543-282200-
LAKESHORE

STATION/POSITION TIME  TEMP    WIND        PRES    VSBY  WAVE
                       AIR SEA DIR/SP/G                  HT/PER
                 (UTC) (F)     (DEG/KT/KT) (MB)    (MI)  (FT/S)
SHEBOYGAN LKSHOR 2000   40      30/ 13/ 14 1017.0F
KEWAUNEE LKSHORE 2000   41      50/  9/ 12 1016.9S
NORTHPORT PIER   2000   41      60/ 10/ 14 1018.3S
N MID LAKE BUOY  1950   39 39   50/ 12/ 14 1018.4F         2/ 4
CHAMBERS ISLAND  2040   40      20/ 11/ 12 1017.9F
MENOMINEE LKSHOR 2000   40      20/ 14/ 17 1016.9F
$$




USA.gov is the U.S. government's official web portal to all federal, state and local government web resources and services.